Wind_Speed
12 14 15 16 16 14 13 13 14 14 14 14 13 13 12 13 14 14 14 14 14 13 12 13 13 13 14 14 13 14 13 12 13 14 12 10 10 11 10 8 7 5 4 5 5 6 6 6 6 7 8 9 10 12 15 18 19 20 22 24 25 24 24 24 24 24 24 25 25 26 27 27 28 28 29 30 31 32 32 31 31 30 30 29 28
13 15 15 14 12 10 10 10 11 12 13 13 12 12 12 12 13 14 14 13 12 11 11 12 11 10 9 10 9 8 7 7 10 11 8 8 8 8 7 6 6 5 5 5 5 6 7 6 7 8 9 9 9 10 12 15 18 19 22 24 24 25 24 24 24 24 25 25 26 26 26 28 29 29 29 30 31 32 32 31 31 31 31 30 29
14 14 13 10 8 7 7 8 9 11 12 12 12 11 11 11 12 13 14 14 12 11 11 12 12 10 6 5 5 2 1 3 6 7 6 6 6 5 5 5 5 4 4 5 5 6 7 6 7 8 10 10 10 10 11 13 16 19 22 23 24 25 25 24 24 24 25 26 26 26 27 28 29 30 30 31 32 33 33 32 32 32 31 31 30
13 11 9 6 4 4 6 7 9 10 11 12 12 12 11 11 12 13 14 14 13 12 11 11 12 12 9 6 4 4 5 6 6 5 5 4 4 4 4 3 3 3 4 5 5 5 5 5 6 8 10 10 10 11 11 13 15 18 22 23 24 25 26 26 25 25 26 27 27 27 27 29 29 30 30 31 32 32 33 32 32 32 32 31 31
11 8 5 3 2 3 5 7 9 10 11 12 12 13 12 12 12 13 13 13 13 12 11 11 12 12 11 10 8 8 7 6 5 5 5 5 5 4 2 1 1 3 4 4 4 4 4 5 6 8 9 10 10 11 12 13 14 17 20 22 25 26 27 27 26 27 28 29 28 28 28 29 29 29 30 31 32 33 32 32 32 33 33 32 32
8 5 2 1 1 3 4 7 9 10 10 11 11 12 12 12 13 13 13 12 11 10 10 10 10 10 10 9 8 7 6 5 4 5 5 5 4 3 2 1 2 3 4 4 4 4 5 6 6 7 8 9 10 11 12 13 14 16 18 21 24 26 27 27 28 28 30 31 30 30 30 30 30 30 31 32 33 33 32 31 32 33 33 33 32
4 2 1 1 2 3 5 7 8 9 10 11 10 11 11 11 12 13 13 12 11 10 9 9 9 8 8 7 6 6 6 5 5 5 5 4 3 2 2 1 3 5 6 7 6 5 5 7 7 7 8 9 10 10 11 13 14 15 17 20 22 24 26 28 29 29 31 31 31 31 31 31 31 32 32 33 33 33 33 32 33 33 33 33 32
2 0 1 2 3 4 6 7 8 9 10 11 11 10 10 11 11 12 12 11 10 9 9 9 8 8 8 7 7 6 6 6 5 5 3 2 2 2 1 0 3 6 8 8 7 6 7 8 8 8 9 10 10 11 12 13 13 14 16 18 21 25 27 29 30 31 31 32 31 32 32 32 32 32 33 34 33 33 34 33 33 34 34 33 32
0 1 3 3 4 5 7 8 9 10 10 12 13 11 10 10 11 11 11 10 9 8 7 8 8 9 8 8 7 7 7 6 6 5 4 3 3 2 1 1 4 6 7 8 8 7 7 7 8 8 9 9 10 11 12 13 14 15 16 17 20 24 26 28 30 32 32 32 33 33 33 32 33 33 34 34 33 33 34 33 34 34 34 33 32
1 2 3 3 4 6 7 8 9 10 12 13 13 11 9 9 10 10 11 10 8 7 6 7 7 7 8 7 7 7 6 6 6 6 5 3 3 3 3 3 4 6 7 7 8 7 6 6 7 8 9 9 9 10 11 13 14 15 17 18 19 21 24 27 29 31 33 33 35 35 33 33 34 35 35 34 34 34 33 34 34 34 34 34 32
2 3 3 3 5 6 7 8 9 11 13 14 14 14 10 8 8 9 10 10 8 7 6 6 6 6 6 5 5 5 5 5 5 5 4 4 4 4 4 5 5 6 6 7 8 7 7 8 9 9 9 10 10 11 11 12 14 15 17 18 19 20 22 24 27 30 33 34 36 35 34 34 35 35 36 35 35 34 33 34 35 34 34 34 33
3 2 2 2 4 5 7 9 11 13 15 16 17 17 12 7 7 7 8 8 7 7 6 5 5 5 5 5 5 5 5 5 5 5 5 5 5 5 5 5 5 5 6 7 8 9 9 10 10 11 11 11 12 12 13 13 14 14 15 17 18 19 20 22 26 30 33 35 36 36 34 35 35 35 35 35 35 34 33 33 35 34 34 34 33
2 1 1 1 3 5 7 9 12 14 15 16 17 17 13 7 6 6 7 7 6 6 6 4 4 4 5 5 6 6 5 4 4 6 6 6 6 6 6 5 4 5 6 7 9 10 11 11 12 13 13 12 12 13 14 14 14 13 13 15 17 18 19 21 24 29 33 35 37 37 36 35 35 35 35 35 35 35 34 34 35 36 34 33 33
2 1 2 2 3 5 7 9 12 13 14 15 15 17 12 5 5 6 6 7 7 7 7 4 2 3 4 4 4 5 6 5 4 5 5 6 6 6 6 5 4 4 6 7 8 10 11 12 13 14 14 14 14 14 15 15 14 12 11 13 15 16 18 19 22 26 31 35 37 37 37 36 35 34 34 34 34 34 34 35 36 36 35 34 33
2 2 2 3 4 6 8 10 11 12 12 14 15 16 12 6 4 5 5 6 6 7 7 6 3 2 3 3 3 3 4 5 4 4 5 4 4 4 5 5 4 3 4 5 7 9 11 12 13 14 15 16 16 17 17 17 15 11 9 10 13 14 15 17 19 23 28 33 36 37 38 37 35 34 34 33 33 34 34 35 36 36 36 35 35
2 2 2 4 5 7 9 10 10 10 12 14 15 15 12 7 5 5 3 3 5 6 6 7 5 4 2 2 2 2 3 4 3 3 4 3 2 2 3 4 4 5 5 5 6 8 10 12 13 14 14 16 18 19 20 19 16 11 9 9 11 12 14 15 17 20 24 30 34 36 38 38 36 35 35 35 35 35 35 36 37 37 37 37 36
2 2 3 5 6 9 9 9 9 10 11 13 15 15 13 9 7 6 4 4 5 5 5 6 6 5 3 2 2 3 3 4 3 3 4 4 1 2 4 5 6 7 7 7 6 7 9 11 13 14 14 15 18 19 21 22 17 11 9 9 9 11 12 14 16 18 22 27 32 35 38 38 37 36 36 36 36 35 35 36 36 37 38 38 36
3 3 4 6 9 10 9 9 10 11 12 14 16 16 13 10 9 8 6 5 4 4 4 5 5 4 3 2 3 3 3 3 3 4 4 5 3 2 4 6 7 8 9 9 7 6 7 10 13 14 14 15 17 19 20 22 19 13 10 10 9 9 10 12 14 16 18 23 30 34 37 38 37 36 37 36 36 35 35 35 36 37 37 37 36
4 4 6 8 11 11 10 10 10 12 14 15 17 17 15 11 9 8 7 6 4 3 3 4 4 4 4 4 4 3 2 2 3 3 4 4 3 3 6 8 8 9 10 10 8 5 5 8 11 12 11 12 15 18 19 21 21 16 11 10 9 8 8 9 11 14 16 20 28 33 36 37 37 36 36 35 35 35 35 35 35 35 35 36 36
5 6 7 9 10 10 10 10 11 13 14 16 18 18 17 12 9 8 7 6 5 4 4 4 5 5 5 4 4 3 3 2 3 3 4 5 4 5 8 10 10 10 11 9 5 4 4 6 7 8 9 9 12 17 19 20 21 18 13 12 11 9 8 8 9 11 13 17 25 32 34 35 35 35 35 35 34 35 35 35 35 35 35 35 35
6 6 7 8 9 9 9 9 11 13 14 15 17 18 18 16 12 9 7 6 6 5 4 4 4 4 3 2 2 2 2 3 4 5 6 7 7 8 10 10 10 11 11 10 6 3 5 5 4 5 7 8 10 14 18 20 19 18 16 14 12 10 9 8 7 7 11 15 23 29 31 33 34 34 34 33 32 33 34 35 35 35 35 35 34
6 7 6 7 7 7 8 9 11 12 13 15 17 18 19 18 15 11 7 5 5 5 5 5 4 4 3 3 3 3 4 6 7 9 9 8 8 8 9 10 11 11 10 10 9 6 7 7 4 4 5 7 9 11 15 19 18 18 17 15 14 12 9 7 6 4 7 13 20 25 28 31 32 32 32 32 31 32 34 35 35 35 35 35 35
5 6 5 5 6 6 7 9 10 11 13 15 17 18 18 17 15 12 9 6 4 4 5 5 5 5 5 6 7 7 7 8 9 10 10 9 8 8 8 9 10 10 9 10 10 9 8 6 5 4 5 6 8 9 12 16 17 17 17 15 15 13 10 6 5 4 4 10 14 18 23 26 28 29 30 30 30 32 33 34 35 35 35 34 35
4 4 3 3 5 6 7 8 9 11 13 15 17 18 18 16 14 12 10 7 6 5 4 4 5 6 6 7 7 7 7 8 8 8 9 9 8 9 9 9 9 9 9 9 9 9 8 5 4 5 5 6 8 8 10 14 16 16 16 14 15 15 13 8 5 4 3 6 9 13 18 22 25 27 28 28 29 30 32 34 35 35 34 34 34
3 2 0 3 5 6 7 9 10 12 13 14 17 18 17 15 13 11 10 8 8 8 7 7 7 6 7 6 6 7 7 7 7 7 8 9 9 9 9 9 8 7 7 9 10 9 8 6 6 7 7 7 8 8 9 12 14 14 14 13 14 17 18 15 8 5 5 6 8 10 14 19 23 25 26 27 28 30 31 32 33 34 34 35 34
3 2 3 5 5 7 8 10 11 12 13 14 17 18 17 15 12 11 9 7 8 9 9 9 8 7 7 6 6 7 7 8 8 8 9 9 10 10 9 9 8 7 6 6 6 6 7 7 7 8 8 7 8 8 8 9 12 13 12 12 14 16 18 20 16 7 5 7 6 6 9 15 20 22 24 25 28 31 32 32 33 33 34 34 34
2 2 4 6 6 8 10 10 11 12 13 15 17 18 16 13 12 11 8 6 6 8 9 9 9 9 8 7 7 7 8 9 9 10 10 10 10 10 10 8 6 6 6 4 3 4 4 5 6 7 8 8 8 9 8 9 11 11 9 10 12 15 15 17 19 16 12 11 6 3 7 12 16 19 22 24 27 29 30 31 32 32 32 33 33
3 3 5 6 7 8 10 11 11 11 13 16 18 17 14 12 11 10 8 6 6 7 8 9 9 9 9 8 8 7 8 9 9 10 10 10 10 10 10 9 7 7 6 4 3 2 1 2 3 4 5 6 7 8 9 9 10 9 7 8 10 12 13 14 16 17 17 17 15 11 7 5 11 16 19 22 23 25 27 28 28 28 30 31 32
4 4 4 5 7 8 9 10 11 12 15 17 17 15 13 11 10 9 8 7 7 8 8 9 10 11 11 10 8 8 7 8 9 10 10 9 9 9 9 10 10 9 7 5 4 2 1 2 3 3 3 5 5 7 8 8 9 9 8 9 10 10 11 12 14 15 15 15 15 15 13 9 4 8 14 18 20 22 24 26 26 27 29 30 31
6 5 3 3 6 7 8 9 10 14 16 17 16 13 11 10 8 8 7 6 7 8 9 10 10 10 11 10 9 8 8 9 10 11 11 10 10 10 9 9 10 10 8 6 5 4 4 4 5 5 5 6 6 8 9 9 9 9 10 10 10 10 10 11 12 13 13 13 13 12 12 12 10 7 7 11 15 20 22 24 26 27 28 29 29
6 4 3 3 4 6 7 8 11 15 17 15 13 11 10 8 7 7 7 7 8 8 8 9 9 10 11 11 11 10 10 10 9 10 10 10 10 10 9 9 9 9 9 8 7 6 7 8 9 10 10 10 11 11 12 12 12 12 13 13 12 10 10 11 11 12 12 12 11 10 10 10 10 10 9 7 8 15 20 22 24 25 26 27 27
5 4 3 3 3 5 7 9 13 16 16 13 11 10 9 8 7 7 7 8 8 8 8 8 9 11 12 12 12 12 12 11 11 11 11 10 10 9 9 9 9 8 8 8 8 8 8 9 11 12 13 13 14 15 15 16 15 16 16 16 15 14 12 12 12 12 12 12 12 12 11 10 10 11 11 9 7 8 15 20 22 21 22 25 26
4 3 2 2 3 6 8 11 15 17 14 12 10 10 9 8 8 8 9 10 11 12 12 10 11 12 13 12 12 12 12 12 12 13 13 13 12 11 10 9 9 8 8 8 9 9 9 10 10 11 13 13 14 14 15 15 15 16 15 16 16 16 16 15 14 14 14 14 14 14 15 14 12 12 11 11 10 8 8 14 19 21 21 22 24
4 1 2 3 4 7 9 12 16 16 13 11 10 9 8 8 8 8 10 12 14 16 15 13 12 12 11 11 12 12 12 13 13 13 14 15 15 13 12 11 11 11 10 10 10 10 11 11 10 11 12 12 12 12 12 12 12 13 13 13 13 14 15 15 16 16 16 15 15 15 16 16 15 13 11 11 12 10 8 8 11 18 21 21 23
3 1 1 3 6 8 9 13 16 15 11 10 9 9 8 8 8 9 10 12 14 17 17 15 13 11 10 10 11 11 12 13 14 14 15 16 15 13 12 12 12 12 12 11 11 11 11 12 12 12 11 11 12 12 12 12 11 11 11 12 11 12 12 13 14 16 16 16 15 16 16 16 15 14 13 12 11 10 9 8 5 10 19 22 22
2 0 2 4 6 8 10 14 16 13 10 9 9 9 8 8 9 9 10 11 13 17 18 15 13 12 11 10 11 11 12 13 14 15 16 15 13 11 11 11 11 11 12 12 11 11 12 12 12 12 11 11 11 11 11 11 11 11 11 12 12 11 11 11 12 13 15 15 15 15 16 16 14 13 13 13 11 9 8 7 5 3 10 17 21
1 0 3 5 7 9 12 14 14 10 9 9 9 8 8 8 9 8 9 10 13 16 17 14 13 13 12 12 12 13 13 14 15 16 15 12 9 9 9 9 10 11 12 12 12 12 12 13 13 12 11 11 11 11 11 10 9 9 9 11 12 12 11 11 10 11 13 14 14 15 16 16 14 12 12 13 11 8 6 6 5 2 2 8 15
1 2 3 5 7 10 13 13 11 9 9 9 9 9 8 8 8 8 8 9 12 16 17 14 12 13 13 13 14 14 14 15 16 16 15 11 8 7 9 10 11 12 12 12 13 13 14 14 14 13 13 12 11 11 12 12 12 10 9 9 10 11 11 11 10 10 11 12 13 14 15 15 13 11 10 12 14 11 6 5 6 4 1 2 7
2 2 3 5 8 11 12 12 10 10 9 9 10 9 9 9 8 7 7 9 10 14 15 13 12 13 14 14 14 14 15 15 16 16 16 14 11 9 10 10 11 12 13 13 14 15 15 15 14 14 14 14 13 12 12 12 13 12 11 10 9 8 9 10 10 10 10 11 11 11 12 11 11 10 8 9 13 12 8 6 7 7 4 3 4
1 2 3 5 8 11 12 11 10 10 10 10 10 10 9 9 8 7 7 8 9 12 13 12 11 13 14 14 13 13 14 15 15 15 15 14 13 12 11 11 11 12 13 13 14 14 15 15 15 15 14 14 13 12 11 11 11 11 12 13 11 9 9 9 9 9 9 10 11 10 10 9 7 8 8 6 8 11 11 10 10 10 7 5 5
2 1 3 5 8 11 12 11 10 11 10 10 11 10 9 9 8 7 7 8 9 10 12 11 10 11 13 12 12 13 13 13 14 14 13 12 12 12 11 10 11 12 12 13 14 15 15 16 16 16 15 14 14 13 12 12 12 13 13 13 13 12 11 10 8 8 8 8 9 9 8 7 6 6 6 5 6 11 14 14 13 13 10 8 7
4 2 3 5 8 11 12 11 11 11 10 11 12 11 9 7 7 6 6 7 8 10 11 11 9 10 11 11 12 13 13 13 14 15 13 11 11 10 10 10 11 12 12 13 15 15 15 16 16 16 16 15 14 14 13 13 13 13 14 14 14 14 12 9 6 7 7 7 7 8 7 5 5 5 4 3 5 11 15 15 15 15 13 11 10
4 2 2 5 9 11 12 12 12 11 11 12 13 11 9 6 5 6 5 5 6 9 11 11 9 10 11 11 12 13 13 13 14 14 12 11 11 11 11 11 12 12 13 13 14 15 15 16 16 16 16 15 14 13 13 12 12 12 13 14 15 15 13 10 7 7 8 7 6 6 5 4 4 5 3 2 3 10 14 15 16 15 14 13 12
4 2 1 5 8 10 12 13 12 11 11 12 12 12 10 7 5 6 5 4 6 9 11 11 10 10 10 11 13 13 12 13 14 14 12 12 12 13 14 13 13 12 12 12 13 15 16 16 16 15 15 15 14 13 13 13 13 13 13 13 13 14 13 12 10 9 8 7 5 5 5 3 3 5 4 2 1 6 10 13 15 16 14 14 14
4 2 2 6 8 10 11 13 12 10 10 11 12 12 12 9 7 6 5 4 6 9 10 10 10 10 10 11 12 12 12 13 14 14 13 12 12 14 14 13 13 12 12 11 11 13 14 15 15 15 15 15 14 13 13 13 14 14 13 13 13 13 12 11 11 10 9 7 5 4 4 3 3 4 5 4 3 4 6 10 13 15 16 14 14
3 1 3 6 8 9 11 12 10 9 9 11 12 13 14 12 10 8 6 5 6 8 9 9 10 10 10 11 11 11 12 14 14 14 14 13 13 14 14 14 14 14 13 13 12 12 12 13 14 14 14 13 13 14 14 14 14 13 13 13 13 12 11 10 10 9 9 8 6 5 4 3 3 4 5 6 6 5 5 7 10 13 15 16 16
2 2 3 6 7 9 11 11 8 7 8 11 13 15 16 15 13 11 8 5 6 7 8 9 9 10 9 9 10 11 12 13 14 15 14 13 13 13 13 14 15 15 16 16 15 15 14 14 13 13 13 12 12 13 13 13 13 12 12 13 13 12 11 9 9 8 7 7 7 6 5 4 3 3 5 7 8 8 7 8 9 11 13 15 16
2 3 4 6 7 8 11 9 6 6 8 11 14 16 17 18 17 13 10 6 5 6 7 7 8 9 8 8 9 10 11 12 14 15 14 12 12 11 11 12 12 13 14 15 15 15 15 14 13 13 13 13 13 13 12 12 12 12 12 12 12 12 11 10 10 9 7 6 6 6 6 5 4 4 4 6 8 9 9 9 10 11 12 13 14
3 4 5 6 7 9 9 5 4 6 7 10 13 15 17 19 19 17 13 9 5 5 5 6 7 7 6 6 7 9 9 11 13 14 14 13 11 11 10 10 10 10 10 11 12 14 15 15 14 13 13 13 13 13 12 12 13 13 13 12 12 12 12 10 10 9 7 6 6 5 5 4 4 4 4 4 6 8 10 11 11 12 13 14 15
4 4 5 5 7 7 5 2 3 5 6 9 12 14 16 19 20 19 17 13 9 6 5 6 7 6 5 4 6 6 7 9 11 13 14 14 13 12 12 11 10 9 9 9 9 11 12 13 13 12 12 12 12 13 13 12 13 13 13 12 12 13 11 8 8 9 7 6 6 5 4 3 3 3 3 3 4 6 8 11 12 13 13 13 14
3 4 4 4 5 4 2 2 3 5 6 9 11 13 15 16 19 20 19 16 12 9 6 6 7 6 4 3 4 5 6 8 9 11 13 14 15 15 15 14 12 10 10 9 9 9 10 11 12 13 13 13 13 13 13 13 13 12 13 13 13 12 10 8 7 7 7 6 7 6 6 4 3 3 3 2 3 4 6 8 11 13 14 15 14
Wind_Direction
319 319 320 319 321 326 332 334 333 334 340 345 348 352 351 349 346 341 335 328 326 329 332 329 320 309 299 291 284 281 280 262 232 216 216 228 239 248 251 241 223 225 253 277 298 307 307 304 304 295 281 266 253 246 240 233 228 225 225 225 222 220 220 220 218 216 216 215 215 217 216 213 211 210 209 206 202 201 200 199 199 199 197 198 199
320 321 321 323 328 334 337 337 340 344 350 354 359 5 8 5 2 0 358 353 350 351 354 356 352 339 317 304 295 294 290 247 207 194 201 222 233 240 235 214 209 228 257 279 299 306 309 309 310 303 291 282 270 260 249 241 235 231 229 228 225 223 222 222 218 216 218 217 216 217 217 214 211 208 207 205 201 200 200 200 199 199 197 198 199
320 322 323 328 337 339 340 342 347 352 355 358 2 7 9 8 6 7 8 8 7 4 4 6 7 7 353 325 311 320 26 150 163 170 190 210 214 208 201 196 208 236 264 289 306 309 311 310 307 297 287 283 276 269 258 247 241 237 234 230 228 227 225 224 220 218 219 219 218 218 217 215 211 207 207 204 202 201 201 201 201 200 199 199 198
321 323 326 335 341 338 343 347 353 357 0 2 3 4 4 5 6 7 8 10 13 16 17 19 24 31 40 43 50 82 99 118 134 152 166 170 172 174 181 192 223 262 291 304 311 317 327 328 317 303 289 283 279 274 265 254 247 243 239 235 231 230 228 225 222 220 220 219 218 218 218 217 212 207 206 205 202 202 202 202 202 201 200 199 198
321 323 331 339 332 335 341 349 358 1 1 2 3 4 4 5 6 6 8 9 14 23 28 34 41 46 54 65 77 90 103 113 118 129 132 138 150 157 164 175 281 311 323 318 312 321 344 348 334 320 305 295 288 282 274 265 256 247 243 238 235 232 228 227 224 221 220 219 218 218 218 218 214 208 206 206 204 204 203 202 202 201 200 200 199
318 324 338 322 275 317 333 348 357 358 355 355 358 1 5 5 5 5 7 9 14 23 31 38 45 50 57 66 75 83 88 88 93 111 120 132 143 143 140 90 19 0 355 346 333 332 345 348 337 327 318 314 308 300 290 279 269 257 248 242 239 236 231 229 227 223 220 219 216 216 217 215 213 209 207 206 205 204 202 201 201 200 199 199 200
315 327 322 194 245 296 325 346 353 352 348 346 346 351 358 0 2 1 2 7 14 20 28 34 39 46 53 58 62 64 67 74 85 100 110 119 134 148 140 87 25 18 13 9 0 350 354 355 348 335 325 322 320 316 308 296 284 272 260 251 246 243 237 231 228 225 223 221 216 215 216 214 211 209 208 206 204 203 202 201 200 199 198 199 199
316 343 174 196 253 291 328 341 341 343 342 342 339 336 344 351 355 356 357 3 12 19 25 31 37 44 50 54 58 63 67 76 83 84 89 100 111 137 148 321 358 12 13 13 12 4 358 357 354 343 333 328 322 314 309 302 294 282 269 259 252 248 241 233 228 225 224 223 219 216 214 213 211 210 208 205 203 203 203 202 200 198 199 199 199
294 162 177 209 268 302 333 337 332 335 337 343 342 334 332 338 345 351 354 357 6 18 25 31 38 44 49 54 60 65 70 76 78 69 68 90 94 81 64 349 0 9 11 13 14 10 358 349 347 341 335 332 323 313 306 302 297 287 274 262 253 248 244 237 232 227 224 222 219 217 214 212 211 211 209 206 204 203 203 203 201 198 198 200 199
169 177 194 230 283 313 335 335 331 335 340 346 349 345 333 328 334 343 351 352 357 13 27 36 43 49 50 54 58 58 63 69 69 61 65 82 65 39 36 30 20 14 14 14 13 10 356 339 333 332 330 327 318 310 304 301 298 291 282 271 259 252 246 240 236 231 226 222 219 217 214 211 211 210 209 206 204 204 203 203 202 200 199 200 200
168 189 212 247 287 315 335 336 337 341 344 349 355 358 347 332 331 338 347 347 350 4 18 34 45 55 56 58 54 48 53 58 58 57 62 67 48 39 43 41 32 26 25 24 21 12 359 344 334 329 327 324 318 311 305 299 295 290 285 277 268 260 251 243 238 233 229 224 219 216 213 211 210 209 209 208 204 203 204 203 203 201 200 202 201
167 186 216 270 292 317 339 341 342 344 345 349 356 360 354 345 344 342 343 338 340 359 10 23 40 58 66 68 62 55 59 57 56 56 59 63 59 54 49 45 42 43 44 39 29 15 2 353 346 342 337 330 323 316 309 302 293 287 284 280 272 266 259 247 238 233 229 224 219 215 213 211 210 208 208 210 206 203 203 203 204 203 202 203 203
170 145 73 335 309 325 342 344 345 344 345 348 353 357 355 354 356 347 340 332 329 353 8 16 37 63 72 71 65 63 63 58 59 58 57 62 60 52 46 51 56 56 55 45 27 14 5 0 359 359 356 345 334 325 317 311 302 292 283 277 271 266 261 251 240 234 227 223 219 215 212 211 209 207 207 208 206 203 203 202 203 204 204 205 204
155 102 68 355 334 340 350 353 348 343 344 346 350 355 355 1 10 356 345 344 341 349 6 15 28 49 50 52 54 59 60 53 55 58 59 61 55 43 35 38 44 47 47 36 22 12 6 5 6 6 3 354 344 336 329 323 316 304 289 278 271 265 260 252 244 237 228 222 218 214 212 210 209 208 207 207 205 204 205 204 204 204 204 206 205
140 101 69 16 2 360 0 358 349 343 345 347 351 355 356 2 25 20 360 350 347 346 4 19 19 12 20 37 48 62 66 53 50 56 56 57 49 33 17 9 5 2 13 16 10 5 3 4 4 4 2 358 354 348 342 336 327 313 298 285 276 268 259 251 244 239 231 224 219 213 210 209 208 208 207 207 206 206 207 207 206 206 206 207 207
131 96 50 17 12 6 1 358 351 347 348 352 357 0 1 6 23 35 26 358 353 351 0 11 9 358 352 19 43 60 64 46 46 49 33 23 23 357 329 317 311 309 319 336 344 348 353 357 357 358 358 359 359 356 353 348 335 320 311 297 283 275 266 256 248 242 234 227 220 212 210 209 207 207 206 205 206 206 207 208 208 207 208 208 208
114 64 27 20 22 14 8 6 359 355 358 5 11 10 8 13 24 31 31 28 16 360 354 359 1 4 359 5 40 55 52 35 43 43 18 14 9 289 298 303 305 303 303 305 311 323 334 344 348 351 356 360 359 356 357 355 344 332 333 322 300 286 276 266 256 247 239 230 220 212 209 208 206 206 205 204 204 205 207 208 209 208 209 210 209
90 50 39 37 31 23 20 20 14 16 22 23 23 18 12 13 21 24 27 31 21 353 357 8 9 18 37 59 67 72 61 38 44 44 25 26 34 357 335 328 319 312 305 296 289 298 317 328 336 345 353 356 355 355 357 357 351 345 345 336 319 299 285 275 265 255 246 232 221 214 209 206 204 203 204 204 203 205 207 208 209 209 209 210 210
94 72 56 44 32 31 35 34 33 37 34 26 22 19 16 13 12 17 24 27 17 6 41 55 56 66 82 92 97 98 80 45 41 41 26 19 21 7 0 354 341 326 314 300 283 283 315 325 329 342 355 352 348 350 354 357 357 357 354 345 334 319 301 288 276 261 249 235 223 215 209 205 203 204 205 205 204 206 208 209 209 210 210 210 210
107 83 57 39 33 37 41 42 42 38 30 22 18 16 17 17 12 9 13 21 24 32 55 71 80 84 89 93 98 92 75 54 40 33 11 352 335 332 344 351 352 346 342 331 298 269 301 321 325 338 356 356 345 345 348 354 359 3 3 354 348 342 330 314 293 263 249 237 220 211 208 206 207 208 208 205 205 206 208 209 209 209 210 209 209
104 82 58 37 31 34 34 34 35 30 23 17 14 12 12 15 17 12 6 15 28 26 26 40 57 68 75 67 61 61 47 23 17 11 3 358 350 344 342 343 347 349 351 351 340 286 275 296 328 342 349 357 350 343 346 350 355 2 5 358 352 347 340 337 319 269 244 228 211 205 205 207 209 210 208 207 207 208 207 208 210 210 209 208 209
95 77 61 34 24 24 20 21 24 21 15 11 10 9 7 10 15 13 2 3 20 20 15 21 23 10 359 350 334 330 332 339 354 1 2 3 359 358 358 359 0 355 344 338 337 318 289 288 309 328 336 352 358 351 349 348 351 1 3 358 357 350 342 344 340 299 236 214 205 205 206 208 209 209 210 209 208 209 208 208 210 210 210 209 211
97 77 59 21 10 12 8 10 14 9 5 4 6 5 4 5 8 6 358 354 1 8 6 7 5 351 343 342 340 342 341 344 354 358 359 359 359 1 5 12 16 11 356 340 328 318 305 288 283 311 333 347 355 359 356 349 350 359 1 358 3 358 345 336 337 333 245 216 211 213 212 213 213 211 212 212 211 213 211 208 209 210 211 212 213
112 84 56 350 350 356 355 357 359 357 357 359 0 0 0 1 3 2 357 352 348 347 345 346 346 343 344 351 355 356 353 355 359 359 356 355 359 2 1 7 14 14 5 350 338 332 326 307 301 327 341 341 345 351 354 349 347 354 359 3 12 9 0 343 307 290 263 238 230 227 220 216 217 215 214 213 213 216 214 209 210 211 212 215 215
132 109 302 304 329 335 338 345 346 349 352 352 354 355 355 357 2 2 355 351 350 347 350 353 351 354 357 355 355 355 358 2 359 352 348 344 346 351 352 353 352 357 360 352 351 352 350 354 355 350 344 338 339 339 343 344 343 351 359 6 14 14 13 8 340 283 253 240 229 235 232 221 219 217 216 215 215 217 217 214 214 213 213 215 216
164 185 257 281 304 315 325 335 339 343 345 346 349 349 350 352 360 3 359 358 354 350 357 1 360 4 5 360 358 0 7 9 1 351 345 340 339 341 344 341 328 328 349 353 346 343 346 360 5 358 353 344 337 334 334 336 339 348 358 5 12 15 19 21 19 7 297 267 232 229 238 225 221 221 220 220 218 218 219 217 217 217 215 214 214
200 207 253 270 288 304 315 325 333 338 340 342 344 344 345 349 358 4 3 2 356 352 360 3 1 5 5 4 4 5 12 14 8 4 3 359 356 353 351 349 330 319 337 344 332 332 344 356 354 350 355 354 348 348 347 340 340 349 359 3 11 15 18 24 31 34 20 2 3 302 254 228 220 221 222 222 221 221 222 222 220 219 218 216 215
224 221 243 259 276 292 306 319 328 334 337 339 341 341 342 347 357 3 2 3 356 352 359 359 358 359 355 350 349 353 6 11 11 12 14 13 12 9 4 5 358 335 326 319 324 342 349 355 355 349 355 2 4 5 4 357 354 2 11 10 11 12 14 20 24 30 31 27 27 14 339 269 226 222 223 223 223 224 228 229 227 224 222 220 219
245 249 249 260 276 289 305 318 325 333 337 338 339 339 340 345 354 358 358 358 349 348 351 348 349 350 344 341 339 339 346 354 359 3 7 7 7 8 7 9 9 356 339 321 317 329 320 338 359 2 6 11 7 6 5 2 3 6 6 7 7 7 9 9 8 12 19 23 26 25 16 1 310 247 235 228 224 225 228 230 230 228 227 224 221
254 263 280 289 287 293 307 319 327 336 338 338 340 341 341 344 349 352 352 345 336 337 339 341 347 349 347 351 353 352 348 344 341 340 342 344 344 346 348 350 355 358 357 349 334 333 333 333 340 339 340 347 346 347 348 348 348 347 347 349 351 354 357 356 355 357 0 5 13 22 23 15 3 341 290 253 234 229 229 229 229 227 225 224 222
249 260 309 315 296 303 319 330 337 340 341 342 346 348 347 347 347 346 346 340 334 333 339 348 357 358 1 10 17 21 20 9 0 352 345 341 337 335 332 329 330 333 341 345 343 342 338 330 329 328 326 328 328 328 329 328 325 324 326 329 331 335 338 340 341 342 342 346 352 0 7 6 2 357 348 322 266 243 235 231 229 225 221 219 219
235 252 316 325 312 326 335 342 344 344 345 349 353 356 358 356 355 358 4 6 7 12 17 17 19 19 22 28 31 34 33 27 24 21 13 6 358 350 343 336 330 324 321 323 325 329 330 325 322 320 319 319 318 317 317 317 315 312 311 311 313 315 316 318 321 322 323 325 326 328 333 339 342 342 344 345 326 271 245 236 231 226 220 217 217
228 255 327 343 337 341 346 347 346 345 349 353 355 1 7 8 13 23 28 29 33 39 40 36 35 35 33 33 34 33 28 21 17 15 11 8 3 357 351 347 345 339 332 324 320 321 325 325 323 321 319 318 316 314 313 309 306 304 303 300 300 301 302 302 301 301 302 304 305 307 310 313 319 326 332 338 340 324 275 248 231 221 217 215 216
216 246 359 355 342 344 348 347 346 347 350 353 356 4 12 18 26 36 35 33 36 39 39 42 44 40 34 33 32 28 21 12 8 6 6 3 360 358 357 357 355 350 345 340 333 329 330 332 334 333 330 328 324 321 319 315 310 306 303 300 295 292 291 290 290 289 288 287 286 288 292 296 301 307 315 325 331 332 322 291 241 220 215 213 213
193 174 9 349 341 343 345 344 346 349 350 352 360 7 16 24 31 38 37 36 38 36 35 40 44 40 34 31 27 23 16 9 6 4 4 1 358 1 5 5 3 358 354 351 347 343 341 341 343 342 339 335 330 329 330 329 328 321 314 310 306 299 292 286 281 280 280 281 283 284 285 286 287 291 296 303 316 326 327 325 293 232 220 213 210
177 161 343 341 339 340 340 342 346 350 352 357 6 12 20 28 34 41 40 37 37 32 31 38 42 37 33 29 24 18 14 12 8 4 3 359 357 4 9 6 7 7 4 3 0 357 353 350 350 348 345 339 333 332 334 334 333 329 320 316 315 312 305 295 285 281 281 285 290 292 292 288 283 281 281 284 294 310 315 315 318 268 222 212 209
186 313 333 336 338 337 335 340 349 354 357 3 13 20 29 35 38 41 38 35 35 29 29 39 42 35 32 29 24 18 15 13 7 3 6 3 358 5 6 4 10 13 11 9 6 3 358 353 353 349 343 338 332 330 331 332 332 329 320 317 317 316 312 306 298 292 288 288 290 290 290 290 287 280 269 264 266 277 297 298 289 296 239 213 209
273 313 328 334 337 336 337 346 358 2 2 10 19 28 35 38 40 41 33 31 32 26 28 38 41 35 32 28 24 20 14 10 5 6 12 10 2 4 3 3 8 8 8 8 5 4 1 355 352 349 344 339 336 334 332 332 334 333 329 326 322 316 313 312 307 302 297 292 290 290 290 291 292 288 271 252 246 248 264 276 260 249 255 230 213
293 322 335 336 336 341 347 357 6 7 9 15 23 31 36 34 39 41 29 27 27 22 24 33 35 31 29 25 21 17 12 9 7 7 10 9 3 0 0 3 5 3 4 5 5 4 3 360 356 353 350 346 343 341 338 336 335 332 331 333 330 322 317 315 309 302 300 298 297 299 300 301 304 309 298 258 241 238 234 227 226 223 213 211 220
247 311 333 335 339 348 355 3 9 11 14 18 22 27 27 25 33 38 27 23 21 15 17 25 29 27 24 22 20 16 13 13 9 6 7 5 360 359 0 3 4 3 3 5 7 6 3 1 358 355 354 350 346 343 339 336 333 330 330 333 335 334 328 324 316 303 297 298 301 305 309 312 319 328 324 285 239 220 205 200 202 201 194 188 200
194 258 324 336 345 353 357 6 14 14 18 21 21 20 14 11 19 25 21 17 12 5 8 17 22 20 18 19 22 18 16 17 10 5 7 6 0 2 1 358 2 6 6 4 2 1 359 358 356 353 352 351 347 343 342 342 341 339 336 334 335 336 333 328 321 310 305 304 305 307 309 308 311 325 328 300 236 202 190 189 191 189 185 180 177
193 253 327 343 355 360 2 11 18 15 19 23 20 13 3 357 3 10 11 10 1 353 358 6 11 12 12 13 18 17 17 20 13 5 9 13 10 9 1 352 352 352 352 351 352 354 356 357 357 353 351 354 353 347 346 350 349 345 341 338 337 339 340 337 322 308 310 314 311 308 309 299 289 305 325 299 230 199 187 184 184 182 180 177 173
198 241 336 355 3 7 9 13 15 13 17 20 17 11 3 352 353 0 2 356 347 346 351 357 359 3 6 7 11 14 16 21 16 8 13 19 20 21 17 8 1 353 349 349 351 352 354 356 359 356 355 360 0 353 350 353 353 350 347 343 342 344 345 345 341 326 317 319 317 309 307 294 267 271 298 314 224 203 192 185 181 179 181 182 178
191 205 347 1 5 9 11 11 9 11 16 17 16 14 10 5 355 354 357 342 335 342 347 351 355 359 3 4 7 12 16 18 14 12 18 23 24 28 26 19 16 12 8 3 356 352 351 355 0 0 358 1 2 359 354 353 354 355 353 349 346 346 347 347 349 347 336 330 328 313 305 293 252 247 256 276 239 206 198 190 184 182 185 188 188
191 207 345 359 3 5 7 6 6 12 17 16 19 19 18 19 9 359 1 343 332 338 342 348 354 356 358 2 7 12 16 14 13 16 21 23 24 27 26 23 24 23 19 14 4 355 351 352 357 360 358 359 3 3 356 351 351 352 352 352 350 349 350 347 345 349 351 347 341 324 310 297 254 236 237 239 238 217 204 197 191 187 188 193 197
200 258 345 355 0 2 0 1 6 15 17 19 26 26 23 23 19 14 11 349 331 333 336 343 350 350 354 2 9 14 14 12 15 20 21 19 20 21 19 19 23 21 17 16 15 9 2 358 360 2 0 359 360 359 356 354 352 350 350 353 351 352 354 347 341 349 358 356 349 338 321 303 269 236 231 231 230 225 215 205 197 190 189 194 199
222 293 343 354 356 355 355 360 10 19 23 27 32 32 28 25 23 22 17 351 325 325 330 337 345 347 351 2 11 15 13 11 17 22 20 15 16 15 10 11 14 12 8 8 10 11 9 6 5 4 2 360 357 356 356 355 354 354 354 351 348 350 353 347 341 345 350 347 344 339 322 300 277 248 234 230 229 225 220 214 208 200 195 195 197
243 288 339 350 347 347 351 1 17 26 29 33 33 34 32 28 25 26 23 6 332 320 324 331 340 344 347 0 14 17 13 13 21 26 23 15 10 7 3 5 8 5 1 0 3 7 9 7 5 4 4 3 1 358 356 355 355 357 357 352 348 347 350 351 349 346 346 344 339 334 325 304 280 264 245 233 229 224 221 219 215 211 208 205 204
263 296 332 337 334 342 350 5 38 34 31 33 30 30 29 26 24 26 27 23 6 338 328 332 339 339 340 358 17 18 14 17 25 30 30 23 13 4 357 354 356 357 355 356 1 7 9 7 3 2 4 6 5 2 357 353 352 351 351 351 351 350 353 358 356 351 351 348 337 330 327 309 286 273 260 247 238 228 223 221 218 216 214 213 215
272 300 320 324 332 346 357 37 55 38 31 30 26 21 20 18 17 19 25 29 23 5 344 337 335 330 333 0 18 18 15 20 27 29 31 28 21 14 5 355 349 345 345 351 0 8 11 7 2 1 2 2 1 1 358 351 346 347 350 353 354 353 355 358 356 354 355 353 348 346 342 323 293 276 267 260 255 243 232 226 223 222 221 219 218
261 292 312 329 346 7 43 52 38 38 32 24 18 12 10 9 7 10 17 23 24 12 352 336 325 320 328 359 12 13 16 22 25 25 25 24 20 17 12 6 359 351 345 347 353 1 6 2 357 357 357 355 355 357 358 353 348 348 352 353 350 346 348 353 354 352 348 345 347 347 343 336 314 274 256 253 268 264 245 232 226 224 227 230 226
Height
1529 1528 1527 1526 1525 1524 1523 1522 1520 1519 1517 1516 1514 1512 1511 1509 1508 1506 1505 1503 1502 1501 1501 1499 1498 1496 1495 1495 1495 1495 1496 1497 1498 1501 1503 1505 1506 1508 1509 1510 1511 1511 1512 1512 1512 1512 1512 1512 1512 1513 1513 1513 1513 1514 1514 1515 1516 1518 1519 1520 1522 1524 1525 1527 1529 1530 1531 1533 1535 1537 1539 1541 1542 1543 1545 1547 1548 1551 1553 1556 1558 1561 1564 1566 1568
1529 1528 1527 1525 1524 1523 1522 1521 1520 1519 1517 1516 1514 1512 1511 1510 1508 1506 1505 1503 1502 1501 1500 1499 1498 1496 1495 1494 1494 1495 1495 1495 1498 1501 1503 1505 1506 1507 1508 1509 1510 1511 1512 1512 1512 1512 1512 1512 1512 1512 1512 1512 1512 1512 1513 1514 1516 1517 1518 1519 1520 1522 1524 1525 1527 1528 1530 1531 1533 1535 1537 1539 1541 1542 1544 1546 1547 1549 1552 1555 1557 1560 1562 1564 1566
1528 1527 1526 1525 1524 1523 1523 1521 1520 1519 1518 1516 1515 1513 1512 1510 1509 1507 1506 1504 1503 1502 1501 1500 1498 1496 1495 1495 1494 1495 1495 1496 1498 1501 1503 1505 1506 1507 1508 1509 1510 1511 1511 1512 1512 1512 1511 1511 1511 1511 1511 1511 1511 1511 1512 1513 1514 1516 1516 1517 1518 1520 1522 1524 1525 1526 1528 1530 1531 1533 1535 1537 1539 1541 1543 1545 1546 1548 1551 1554 1556 1558 1560 1562 1565
1528 1527 1526 1525 1524 1524 1523 1522 1521 1520 1518 1517 1516 1514 1513 1511 1510 1508 1507 1505 1504 1502 1501 1500 1499 1498 1496 1496 1496 1496 1497 1498 1500 1502 1503 1505 1506 1508 1509 1510 1511 1511 1512 1512 1511 1511 1511 1511 1511 1511 1510 1510 1510 1510 1511 1512 1514 1515 1515 1516 1517 1518 1520 1522 1522 1524 1527 1528 1530 1531 1533 1535 1537 1540 1542 1544 1546 1548 1550 1552 1555 1557 1559 1561 1563
1527 1527 1526 1525 1525 1524 1524 1523 1522 1521 1519 1518 1517 1515 1514 1513 1511 1510 1508 1506 1505 1504 1503 1502 1501 1500 1499 1498 1498 1499 1499 1500 1502 1503 1505 1506 1507 1508 1509 1510 1511 1511 1511 1511 1511 1511 1511 1511 1511 1510 1510 1509 1509 1510 1510 1511 1513 1514 1514 1515 1515 1515 1517 1519 1520 1522 1524 1526 1527 1529 1531 1533 1535 1538 1540 1542 1544 1547 1549 1551 1553 1555 1557 1559 1561
1527 1527 1526 1526 1526 1525 1524 1524 1523 1521 1520 1519 1518 1516 1515 1514 1512 1511 1509 1508 1507 1506 1505 1504 1503 1502 1502 1501 1501 1501 1502 1503 1504 1505 1506 1507 1508 1509 1510 1511 1511 1511 1511 1511 1511 1511 1511 1511 1511 1510 1510 1509 1509 1509 1509 1509 1510 1511 1512 1512 1513 1513 1515 1517 1518 1520 1522 1524 1525 1527 1529 1531 1533 1536 1539 1541 1543 1545 1547 1549 1551 1553 1556 1558 1560
1527 1527 1526 1526 1526 1525 1525 1524 1523 1522 1521 1519 1518 1517 1516 1515 1513 1512 1511 1509 1508 1507 1506 1505 1505 1504 1504 1503 1503 1504 1504 1505 1506 1506 1507 1508 1509 1509 1510 1511 1511 1511 1511 1511 1511 1511 1511 1511 1511 1510 1510 1509 1509 1508 1508 1508 1507 1508 1509 1509 1510 1511 1512 1514 1516 1518 1520 1522 1524 1526 1528 1529 1531 1534 1537 1539 1541 1543 1545 1547 1550 1552 1554 1556 1558
1527 1527 1527 1526 1526 1525 1525 1525 1524 1522 1521 1520 1519 1518 1517 1515 1514 1513 1512 1511 1509 1508 1507 1507 1506 1506 1505 1505 1505 1506 1506 1506 1507 1508 1508 1509 1509 1510 1510 1511 1511 1511 1511 1511 1511 1511 1511 1510 1510 1510 1509 1508 1508 1507 1507 1507 1506 1506 1506 1508 1508 1508 1509 1511 1514 1516 1518 1519 1521 1524 1526 1528 1530 1532 1535 1537 1539 1541 1543 1546 1548 1550 1552 1555 1557
1527 1527 1527 1527 1526 1526 1526 1525 1524 1523 1522 1521 1519 1518 1517 1516 1515 1514 1513 1512 1511 1510 1509 1508 1507 1507 1507 1507 1507 1507 1507 1508 1508 1509 1509 1509 1510 1510 1510 1511 1511 1511 1511 1511 1511 1511 1510 1510 1509 1509 1508 1508 1507 1506 1506 1506 1505 1505 1505 1506 1506 1505 1506 1509 1511 1512 1514 1516 1518 1520 1523 1526 1528 1530 1533 1535 1537 1539 1542 1544 1546 1548 1551 1553 1555
1527 1527 1527 1527 1526 1526 1526 1525 1524 1523 1522 1521 1520 1518 1517 1516 1515 1514 1514 1513 1512 1511 1510 1509 1509 1508 1508 1508 1508 1508 1509 1509 1509 1509 1509 1510 1510 1510 1511 1511 1511 1511 1511 1511 1511 1510 1510 1509 1509 1509 1508 1507 1506 1505 1505 1504 1504 1503 1502 1502 1503 1503 1503 1505 1507 1508 1510 1513 1515 1517 1520 1523 1526 1528 1531 1533 1535 1538 1540 1542 1545 1547 1549 1551 1554
1528 1528 1527 1527 1527 1527 1526 1525 1524 1524 1523 1522 1520 1518 1517 1516 1515 1515 1514 1513 1513 1512 1511 1510 1510 1509 1509 1509 1509 1509 1509 1509 1510 1510 1510 1510 1510 1511 1511 1511 1511 1511 1511 1511 1510 1510 1509 1509 1508 1508 1507 1507 1506 1505 1503 1503 1502 1501 1500 1498 1498 1499 1500 1502 1504 1506 1508 1510 1513 1515 1517 1520 1523 1526 1529 1531 1534 1536 1538 1541 1543 1545 1548 1550 1552
1528 1528 1528 1528 1528 1527 1527 1526 1525 1524 1523 1521 1520 1518 1517 1516 1515 1515 1514 1514 1513 1513 1512 1511 1511 1510 1510 1510 1510 1510 1510 1510 1510 1510 1510 1510 1511 1511 1511 1511 1511 1511 1511 1511 1510 1510 1509 1509 1508 1507 1507 1506 1505 1504 1502 1501 1500 1499 1498 1496 1494 1495 1497 1498 1500 1502 1504 1506 1510 1512 1514 1517 1520 1523 1527 1530 1532 1535 1537 1540 1542 1544 1546 1548 1550
1528 1528 1528 1528 1528 1528 1527 1526 1525 1524 1523 1521 1520 1519 1518 1516 1515 1515 1515 1514 1514 1513 1513 1512 1512 1511 1511 1511 1510 1510 1511 1510 1510 1511 1511 1511 1511 1511 1511 1511 1511 1511 1511 1511 1510 1510 1509 1508 1507 1507 1506 1505 1504 1503 1501 1499 1498 1497 1496 1495 1493 1492 1493 1494 1496 1498 1500 1502 1505 1508 1511 1514 1517 1521 1524 1528 1530 1533 1535 1537 1540 1542 1544 1546 1549
1528 1528 1529 1529 1528 1528 1527 1526 1525 1524 1523 1522 1521 1520 1518 1517 1516 1515 1515 1514 1514 1514 1513 1513 1512 1512 1512 1512 1511 1511 1511 1511 1511 1511 1511 1511 1511 1511 1511 1511 1511 1511 1511 1511 1510 1510 1509 1508 1507 1506 1505 1504 1503 1502 1500 1498 1496 1495 1495 1493 1492 1491 1491 1492 1493 1494 1496 1498 1501 1504 1507 1510 1515 1518 1521 1525 1528 1531 1534 1536 1538 1540 1542 1545 1547
1528 1529 1529 1529 1529 1528 1528 1527 1526 1524 1523 1522 1521 1520 1518 1517 1516 1515 1515 1515 1514 1514 1514 1513 1513 1513 1513 1512 1512 1512 1511 1511 1511 1511 1511 1511 1512 1512 1512 1511 1511 1511 1511 1511 1510 1510 1509 1508 1507 1506 1505 1503 1502 1501 1499 1497 1495 1493 1493 1492 1490 1490 1490 1490 1491 1492 1493 1495 1497 1500 1504 1508 1511 1514 1518 1523 1526 1529 1532 1534 1536 1538 1540 1542 1544
1529 1529 1530 1530 1529 1529 1528 1527 1526 1525 1524 1523 1521 1520 1519 1517 1516 1516 1515 1515 1515 1515 1514 1514 1513 1513 1513 1512 1512 1512 1512 1512 1512 1512 1512 1512 1512 1512 1511 1511 1511 1511 1511 1510 1510 1510 1509 1508 1507 1506 1504 1503 1502 1500 1499 1496 1494 1492 1491 1490 1489 1488 1488 1488 1489 1490 1491 1493 1495 1498 1501 1504 1508 1511 1515 1519 1522 1525 1529 1531 1533 1535 1537 1539 1542
1530 1530 1530 1530 1530 1529 1528 1527 1526 1525 1524 1523 1522 1521 1519 1518 1517 1516 1516 1516 1515 1515 1515 1514 1514 1513 1513 1512 1512 1512 1512 1512 1512 1512 1512 1512 1512 1511 1511 1511 1511 1511 1510 1510 1510 1509 1509 1508 1507 1506 1504 1503 1502 1500 1498 1496 1494 1492 1490 1489 1488 1487 1487 1486 1487 1488 1488 1490 1493 1496 1498 1501 1504 1507 1511 1514 1518 1521 1524 1527 1529 1532 1534 1537 1540
1530 1531 1530 1530 1530 1529 1528 1527 1527 1526 1525 1524 1523 1522 1520 1519 1518 1517 1516 1516 1516 1516 1515 1515 1514 1514 1513 1513 1512 1512 1512 1512 1512 1512 1512 1512 1512 1511 1511 1511 1511 1510 1510 1509 1509 1508 1508 1507 1506 1505 1504 1503 1501 1500 1498 1496 1494 1491 1490 1489 1487 1486 1486 1485 1485 1486 1486 1487 1489 1492 1494 1497 1501 1505 1508 1511 1515 1518 1521 1524 1526 1529 1532 1535 1538
1531 1531 1530 1530 1529 1529 1528 1528 1527 1527 1526 1525 1524 1523 1521 1520 1519 1518 1517 1517 1517 1516 1516 1515 1515 1514 1513 1513 1513 1513 1512 1512 1512 1512 1512 1512 1512 1512 1511 1511 1510 1510 1509 1508 1508 1508 1508 1507 1506 1505 1504 1503 1501 1500 1498 1496 1494 1491 1490 1488 1487 1486 1485 1485 1485 1485 1485 1485 1486 1488 1491 1495 1499 1503 1506 1509 1512 1515 1518 1521 1524 1527 1530 1533 1536
1532 1531 1531 1530 1530 1529 1529 1529 1528 1527 1526 1526 1525 1523 1522 1521 1520 1519 1518 1518 1517 1517 1516 1516 1515 1515 1514 1514 1513 1513 1513 1513 1512 1512 1512 1512 1512 1511 1511 1511 1510 1510 1508 1507 1507 1507 1506 1505 1505 1505 1504 1503 1502 1500 1498 1496 1494 1492 1490 1489 1487 1486 1485 1485 1484 1484 1485 1485 1485 1488 1492 1495 1499 1502 1504 1506 1509 1512 1515 1519 1522 1525 1528 1531 1534
1532 1532 1531 1531 1530 1530 1530 1529 1529 1528 1527 1526 1525 1524 1523 1522 1521 1519 1519 1518 1518 1517 1517 1516 1516 1515 1515 1515 1514 1514 1513 1513 1513 1512 1512 1512 1511 1511 1511 1510 1510 1509 1508 1507 1506 1506 1505 1504 1504 1504 1503 1503 1502 1500 1499 1497 1495 1492 1490 1489 1488 1486 1485 1485 1484 1484 1484 1485 1486 1489 1492 1495 1498 1501 1503 1505 1507 1510 1513 1516 1520 1523 1525 1528 1531
1532 1532 1532 1531 1531 1531 1530 1530 1529 1529 1528 1527 1526 1525 1523 1522 1521 1520 1519 1519 1518 1518 1518 1517 1516 1516 1515 1515 1515 1514 1514 1513 1513 1512 1512 1512 1512 1511 1511 1510 1509 1509 1507 1506 1506 1505 1504 1504 1504 1503 1503 1502 1501 1500 1499 1497 1495 1493 1491 1490 1488 1487 1486 1485 1484 1484 1484 1485 1486 1489 1492 1494 1497 1499 1501 1503 1506 1509 1511 1514 1518 1521 1523 1525 1528
1533 1532 1532 1532 1531 1531 1531 1530 1530 1529 1529 1528 1526 1525 1524 1522 1521 1520 1520 1519 1519 1519 1518 1518 1517 1516 1515 1515 1514 1514 1513 1513 1513 1512 1512 1512 1512 1511 1511 1510 1509 1508 1507 1506 1506 1505 1504 1504 1503 1503 1503 1502 1501 1500 1499 1498 1495 1494 1492 1491 1489 1487 1486 1486 1485 1485 1485 1485 1487 1489 1491 1493 1495 1497 1499 1502 1505 1508 1510 1511 1514 1517 1520 1522 1525
1533 1533 1532 1532 1532 1532 1531 1531 1530 1530 1529 1528 1527 1525 1524 1523 1522 1521 1520 1519 1519 1519 1519 1518 1517 1516 1515 1515 1514 1514 1513 1513 1513 1512 1512 1512 1512 1512 1511 1510 1510 1508 1507 1506 1505 1505 1504 1503 1503 1503 1503 1502 1501 1500 1499 1498 1496 1495 1493 1492 1490 1488 1487 1486 1486 1485 1486 1486 1487 1489 1491 1492 1493 1495 1498 1501 1504 1507 1509 1510 1511 1514 1517 1520 1523
1533 1533 1532 1532 1532 1532 1532 1531 1531 1530 1529 1528 1527 1526 1524 1523 1522 1521 1520 1520 1519 1519 1518 1518 1517 1517 1516 1515 1514 1514 1513 1513 1513 1513 1512 1512 1512 1512 1511 1510 1509 1508 1507 1507 1505 1505 1504 1504 1503 1503 1503 1502 1501 1500 1499 1498 1497 1495 1494 1492 1491 1490 1488 1487 1486 1485 1486 1486 1487 1489 1490 1492 1493 1495 1497 1500 1503 1505 1507 1508 1509 1512 1515 1518 1521
1533 1533 1532 1532 1532 1532 1532 1532 1531 1530 1530 1529 1528 1526 1525 1523 1522 1521 1521 1520 1520 1519 1518 1518 1517 1517 1516 1515 1514 1514 1513 1513 1513 1512 1512 1512 1511 1511 1511 1510 1509 1508 1507 1507 1506 1505 1504 1504 1504 1503 1502 1502 1501 1500 1499 1498 1497 1496 1495 1493 1492 1491 1490 1488 1487 1486 1487 1486 1486 1488 1490 1491 1493 1495 1496 1499 1501 1502 1504 1505 1507 1510 1513 1516 1519
1532 1533 1532 1532 1532 1532 1532 1532 1531 1530 1530 1529 1528 1526 1525 1523 1522 1522 1521 1521 1520 1519 1519 1518 1518 1517 1516 1516 1515 1514 1514 1513 1513 1512 1512 1511 1511 1510 1510 1509 1509 1508 1507 1506 1506 1505 1505 1504 1504 1503 1502 1501 1500 1500 1499 1498 1497 1496 1495 1494 1493 1492 1491 1490 1488 1488 1488 1487 1485 1487 1489 1491 1493 1494 1495 1496 1499 1500 1502 1504 1505 1507 1511 1514 1517
1532 1533 1533 1533 1533 1532 1532 1532 1531 1531 1530 1528 1527 1526 1524 1523 1523 1522 1522 1521 1521 1520 1519 1518 1517 1517 1516 1516 1515 1514 1514 1513 1513 1512 1512 1511 1511 1510 1510 1509 1508 1507 1506 1506 1505 1505 1505 1504 1504 1503 1502 1501 1500 1500 1499 1498 1497 1496 1496 1495 1494 1493 1492 1491 1490 1489 1489 1489 1488 1488 1489 1490 1492 1493 1494 1495 1497 1499 1500 1501 1503 1505 1509 1512 1514
1533 1533 1533 1533 1533 1533 1532 1532 1531 1531 1529 1528 1527 1525 1524 1523 1523 1522 1522 1521 1521 1520 1519 1518 1517 1517 1516 1515 1515 1514 1514 1513 1513 1512 1512 1511 1511 1510 1509 1509 1508 1507 1506 1506 1505 1505 1505 1504 1504 1503 1502 1502 1501 1500 1499 1499 1498 1497 1496 1495 1494 1494 1493 1492 1491 1491 1490 1490 1490 1490 1490 1490 1491 1492 1493 1494 1495 1496 1497 1498 1500 1503 1506 1509 1511
1532 1533 1533 1533 1533 1533 1533 1532 1532 1530 1529 1527 1526 1525 1524 1524 1523 1523 1522 1521 1521 1520 1519 1518 1517 1516 1515 1514 1514 1514 1513 1513 1512 1512 1511 1511 1510 1509 1509 1508 1508 1507 1506 1506 1505 1505 1504 1504 1504 1503 1502 1502 1501 1500 1500 1499 1499 1498 1497 1496 1495 1494 1493 1492 1492 1491 1491 1491 1491 1491 1491 1491 1491 1491 1491 1491 1492 1493 1494 1495 1497 1500 1503 1506 1509
1533 1533 1533 1533 1533 1533 1533 1532 1532 1530 1529 1527 1526 1525 1524 1524 1523 1523 1522 1521 1521 1520 1519 1518 1517 1516 1515 1514 1514 1513 1513 1512 1512 1511 1510 1510 1509 1508 1508 1507 1507 1507 1506 1506 1505 1505 1504 1504 1503 1503 1502 1502 1501 1500 1500 1499 1499 1498 1497 1496 1496 1495 1494 1493 1492 1492 1491 1492 1492 1492 1492 1492 1491 1491 1491 1490 1490 1491 1492 1493 1495 1497 1500 1503 1506
1533 1533 1534 1533 1533 1533 1533 1533 1532 1530 1529 1527 1526 1525 1524 1524 1523 1522 1522 1521 1520 1519 1518 1518 1517 1516 1515 1514 1514 1513 1513 1512 1512 1511 1510 1509 1509 1508 1507 1507 1506 1506 1506 1505 1505 1504 1504 1503 1503 1502 1502 1501 1501 1500 1499 1498 1498 1497 1497 1496 1495 1495 1494 1493 1492 1491 1491 1491 1491 1492 1492 1492 1492 1491 1491 1490 1490 1490 1490 1491 1493 1495 1497 1500 1502
1533 1533 1534 1533 1533 1533 1533 1532 1531 1530 1529 1527 1526 1525 1524 1524 1523 1523 1522 1522 1521 1520 1519 1518 1517 1517 1516 1515 1514 1513 1513 1513 1512 1511 1510 1510 1509 1508 1507 1506 1506 1505 1505 1505 1504 1504 1503 1503 1502 1501 1501 1500 1500 1499 1498 1497 1496 1496 1495 1495 1494 1494 1493 1493 1492 1491 1491 1490 1490 1491 1491 1491 1491 1491 1491 1490 1489 1489 1488 1489 1490 1492 1494 1497 1500
1533 1533 1534 1534 1534 1533 1533 1532 1531 1530 1528 1527 1526 1525 1525 1524 1524 1523 1523 1522 1521 1520 1519 1519 1518 1517 1516 1515 1515 1514 1513 1513 1512 1511 1510 1509 1508 1507 1507 1506 1505 1504 1504 1503 1503 1503 1503 1502 1502 1501 1500 1499 1498 1497 1496 1496 1495 1494 1493 1493 1492 1492 1492 1491 1491 1490 1489 1489 1489 1489 1489 1489 1490 1491 1491 1490 1490 1489 1488 1488 1488 1489 1492 1494 1497
1533 1534 1534 1534 1534 1534 1533 1532 1531 1530 1528 1527 1526 1526 1525 1525 1524 1524 1523 1523 1522 1521 1520 1519 1518 1518 1517 1516 1515 1515 1514 1513 1512 1511 1510 1509 1508 1507 1506 1505 1505 1504 1503 1503 1502 1502 1502 1501 1501 1500 1499 1498 1497 1496 1495 1494 1493 1493 1492 1491 1491 1490 1490 1489 1489 1488 1487 1487 1487 1486 1487 1487 1488 1489 1490 1490 1490 1489 1489 1488 1487 1488 1490 1492 1495
1533 1534 1534 1534 1534 1534 1533 1532 1531 1530 1529 1527 1527 1526 1525 1525 1525 1524 1524 1523 1523 1522 1521 1520 1519 1518 1517 1517 1516 1515 1515 1514 1513 1511 1510 1509 1507 1507 1506 1506 1505 1504 1503 1503 1502 1501 1501 1501 1500 1499 1498 1497 1496 1495 1495 1494 1493 1492 1491 1490 1490 1489 1489 1488 1487 1487 1486 1485 1485 1485 1485 1485 1486 1487 1488 1488 1489 1489 1489 1488 1488 1488 1489 1491 1494
1534 1534 1534 1534 1534 1534 1533 1532 1531 1530 1529 1528 1527 1526 1526 1526 1525 1525 1525 1524 1523 1523 1521 1520 1519 1519 1518 1517 1516 1516 1515 1514 1513 1511 1510 1509 1508 1507 1507 1506 1505 1504 1504 1503 1502 1501 1501 1500 1499 1499 1498 1497 1496 1495 1494 1493 1493 1492 1491 1490 1489 1489 1488 1487 1487 1486 1485 1484 1484 1484 1483 1484 1484 1485 1486 1486 1487 1488 1488 1488 1489 1489 1489 1490 1492
1534 1534 1535 1535 1535 1534 1533 1532 1531 1530 1529 1528 1527 1527 1526 1526 1526 1526 1525 1525 1524 1523 1522 1521 1520 1519 1519 1518 1517 1516 1515 1514 1513 1511 1510 1509 1508 1507 1507 1506 1505 1504 1503 1503 1502 1501 1500 1500 1499 1498 1498 1497 1496 1495 1494 1493 1492 1491 1491 1490 1489 1489 1488 1487 1486 1485 1485 1484 1483 1483 1482 1482 1482 1483 1483 1484 1485 1486 1487 1488 1489 1489 1489 1490 1491
1535 1535 1535 1535 1535 1534 1533 1532 1531 1530 1529 1528 1528 1527 1527 1527 1527 1526 1526 1525 1525 1524 1523 1522 1521 1520 1519 1518 1517 1516 1515 1514 1513 1511 1510 1509 1508 1507 1507 1506 1505 1504 1503 1502 1502 1501 1500 1500 1499 1498 1497 1496 1496 1495 1494 1493 1492 1491 1490 1490 1489 1489 1488 1487 1486 1485 1484 1483 1482 1482 1482 1482 1481 1481 1481 1482 1483 1484 1486 1487 1488 1489 1489 1490 1490
1535 1536 1535 1535 1535 1534 1533 1532 1531 1530 1529 1529 1528 1528 1528 1528 1527 1527 1526 1526 1525 1524 1524 1523 1521 1520 1520 1519 1518 1517 1516 1514 1513 1512 1510 1509 1508 1507 1507 1506 1505 1504 1503 1502 1502 1501 1501 1500 1499 1498 1498 1497 1496 1495 1494 1493 1492 1491 1490 1489 1488 1488 1487 1486 1486 1485 1484 1483 1482 1482 1482 1481 1481 1481 1480 1480 1481 1482 1484 1485 1487 1488 1489 1489 1490
1536 1536 1536 1536 1535 1534 1533 1532 1532 1531 1530 1529 1529 1528 1528 1528 1528 1527 1527 1526 1526 1525 1524 1523 1522 1521 1520 1519 1518 1517 1516 1515 1514 1512 1511 1510 1509 1508 1507 1506 1505 1504 1503 1503 1502 1502 1501 1500 1499 1498 1498 1497 1495 1494 1493 1493 1492 1491 1490 1489 1488 1487 1487 1486 1485 1484 1483 1482 1482 1482 1481 1481 1481 1481 1480 1479 1479 1481 1482 1484 1485 1487 1488 1489 1490
1536 1536 1536 1536 1535 1535 1534 1533 1532 1531 1531 1530 1529 1529 1528 1528 1528 1528 1527 1527 1526 1525 1524 1523 1523 1522 1521 1520 1519 1518 1516 1515 1514 1513 1511 1510 1509 1508 1507 1505 1505 1504 1503 1503 1502 1502 1501 1500 1499 1498 1497 1496 1495 1494 1493 1492 1492 1491 1489 1488 1487 1487 1486 1485 1484 1483 1483 1482 1481 1481 1481 1481 1481 1481 1480 1480 1480 1480 1481 1483 1485 1486 1488 1489 1490
1536 1537 1537 1536 1536 1535 1534 1533 1533 1532 1531 1530 1530 1529 1529 1528 1528 1528 1527 1527 1527 1526 1525 1524 1523 1522 1521 1520 1519 1518 1516 1515 1514 1513 1512 1511 1509 1508 1507 1506 1505 1504 1503 1503 1502 1502 1501 1500 1499 1498 1497 1496 1495 1494 1493 1493 1492 1491 1490 1488 1487 1486 1485 1484 1484 1483 1482 1482 1481 1481 1481 1481 1481 1481 1481 1481 1481 1481 1481 1482 1484 1486 1487 1489 1490
1537 1537 1537 1537 1536 1536 1535 1534 1533 1532 1532 1531 1530 1530 1529 1528 1528 1527 1527 1527 1527 1526 1525 1524 1523 1522 1521 1521 1519 1518 1517 1515 1514 1513 1512 1511 1510 1509 1507 1506 1506 1505 1504 1503 1502 1502 1501 1501 1500 1498 1497 1496 1495 1494 1493 1493 1492 1491 1490 1488 1487 1486 1485 1484 1483 1482 1481 1481 1481 1480 1480 1480 1481 1481 1481 1481 1481 1482 1482 1483 1484 1485 1487 1489 1490
1537 1537 1537 1537 1536 1536 1535 1534 1533 1533 1532 1531 1531 1530 1529 1528 1528 1527 1527 1527 1526 1526 1525 1524 1524 1523 1522 1521 1519 1518 1517 1516 1515 1513 1512 1511 1510 1509 1508 1507 1507 1506 1505 1504 1503 1502 1501 1501 1500 1499 1498 1497 1495 1494 1494 1492 1492 1491 1490 1489 1487 1486 1485 1484 1483 1482 1481 1481 1481 1480 1480 1480 1480 1481 1481 1482 1482 1482 1483 1483 1484 1485 1487 1488 1490
1537 1537 1537 1537 1537 1536 1536 1535 1534 1533 1533 1532 1531 1531 1530 1529 1528 1527 1526 1526 1526 1526 1525 1524 1524 1523 1522 1521 1520 1518 1517 1516 1515 1513 1512 1511 1510 1509 1508 1508 1507 1506 1506 1505 1504 1503 1502 1501 1500 1499 1498 1497 1496 1495 1494 1492 1491 1490 1489 1489 1488 1486 1485 1484 1483 1482 1482 1481 1481 1480 1480 1480 1480 1480 1481 1481 1482 1482 1483 1484 1484 1485 1486 1488 1489
1537 1537 1538 1537 1537 1537 1536 1535 1534 1534 1533 1533 1532 1531 1530 1529 1528 1527 1526 1526 1526 1526 1525 1525 1524 1523 1522 1521 1520 1519 1518 1516 1515 1513 1512 1512 1511 1510 1509 1508 1507 1507 1506 1505 1504 1503 1502 1501 1500 1499 1498 1497 1496 1495 1494 1493 1491 1490 1489 1488 1487 1487 1486 1484 1483 1483 1482 1482 1481 1480 1480 1480 1480 1480 1480 1481 1482 1482 1483 1484 1484 1485 1486 1488 1489
1537 1537 1538 1538 1537 1537 1536 1535 1535 1534 1534 1533 1532 1532 1531 1530 1528 1527 1526 1526 1526 1525 1525 1525 1524 1523 1522 1521 1520 1519 1518 1517 1515 1514 1513 1512 1511 1510 1510 1509 1508 1507 1506 1505 1504 1503 1502 1501 1500 1499 1498 1497 1496 1495 1494 1493 1492 1490 1490 1489 1488 1486 1485 1484 1483 1482 1482 1481 1481 1480 1480 1480 1479 1480 1480 1480 1481 1482 1483 1483 1484 1485 1486 1487 1488
1537 1538 1538 1538 1537 1537 1536 1535 1535 1535 1534 1534 1533 1532 1531 1530 1529 1528 1527 1526 1525 1525 1525 1525 1524 1523 1523 1522 1520 1520 1519 1518 1516 1515 1514 1513 1512 1511 1510 1509 1508 1508 1507 1506 1505 1504 1503 1502 1501 1500 1499 1498 1497 1495 1494 1493 1492 1490 1489 1489 1487 1486 1485 1485 1484 1483 1482 1481 1481 1480 1480 1480 1479 1479 1480 1480 1480 1481 1482 1483 1483 1484 1485 1486 1487
1537 1538 1538 1537 1537 1537 1536 1536 1535 1535 1534 1534 1533 1533 1532 1531 1530 1529 1527 1526 1525 1525 1525 1525 1524 1523 1523 1522 1521 1520 1519 1518 1517 1516 1514 1513 1512 1511 1510 1509 1508 1508 1507 1506 1505 1504 1503 1502 1501 1500 1499 1498 1497 1495 1494 1493 1491 1490 1489 1488 1487 1486 1486 1485 1484 1483 1482 1481 1481 1480 1480 1479 1479 1479 1479 1480 1480 1481 1481 1482 1483 1484 1484 1485 1486
1537 1537 1537 1537 1537 1536 1536 1536 1535 1535 1535 1534 1534 1533 1533 1532 1531 1530 1528 1526 1525 1525 1525 1524 1524 1523 1523 1522 1521 1521 1520 1519 1518 1516 1515 1514 1513 1512 1511 1509 1508 1507 1506 1506 1505 1504 1503 1502 1501 1500 1499 1498 1497 1495 1494 1493 1491 1490 1489 1488 1487 1486 1485 1485 1485 1484 1483 1482 1481 1480 1479 1479 1479 1479 1479 1480 1480 1480 1481 1481 1482 1483 1483 1484 1485